Location: Capvern
(43.1036°N, 0.3160°E)
Time: 23:28:39
(UTC+00:00)

IRS-1C Rocket - Pass Details

Date: 16 October 2021
Orbit: 801 x 805 km, 98.9° (Epoch: 04 December)

Event Time Altitude Azimuth Distance (km) Brightness Sun altitude
Exits shadow 18:49:18 - 157° (SSE) 2,860 6.7 -18.1°
Reaches altitude 10° 18:50:32 10° 156° (SSE) 2,371 6.3 -18.3°
Maximum altitude 18:55:44 72° 73° (ENE) 847 4.0 -19.3°
Drops below altitude 10° 19:00:59 10° 350° (N) 2,390 6.7 -20.2°
Sets 19:03:20 0° 349° (NNW) 3,325 7.5 -20.7°
